Location: Newark
(20.0000°S, 47.0000°E)
Time: 21:23:26
(UTC+00:00)

Envisat - Pass Details

Date: 25 June 2019
Orbit: 764 x 766 km, 98.1° (Epoch: 19 July)

Event Time Altitude Azimuth Distance (km) Brightness Sun altitude
Exits shadow 16:17:23 23° 190° (S) 1,595 4.5 -26.1°
Maximum altitude 16:20:21 51° 256° (WSW) 965 3.7 -26.8°
Drops below altitude 10° 16:25:14 10° 331° (NNW) 2,294 6.0 -27.9°
Sets 16:27:35 0° 336° (NNW) 3,214 6.8 -28.4°
